Time,TemperatureF,DewpointF,PressureIn,WindDirection,WindDirectionDegrees,WindSpeedMPH,WindSpeedGustMPH,Humidity,HourlyPrecipIn,Conditions,Clouds,dailyrainin,SoftwareType,DateUTC
2013-01-25 00:02:00,58.9,57.5,30.10,NNW,327,2.0,3.0,95,0.04,,,0.01,Wunderground v.1.15,2013-01-25 08:02:00,
2013-01-25 00:08:00,58.8,57.4,30.10,NNW,338,2.0,3.0,95,0.04,,,0.01,Wunderground v.1.15,2013-01-25 08:08:00,
2013-01-25 00:14:00,58.9,56.9,30.10,NNW,327,2.0,3.0,93,0.04,,,0.01,Wunderground v.1.15,2013-01-25 08:14:00,
2013-01-25 00:20:00,59.0,56.7,30.10,WNW,301,2.0,2.0,92,0.04,,,0.02,Wunderground v.1.15,2013-01-25 08:20:00,
2013-01-25 00:26:00,59.2,56.6,30.09,WNW,298,1.0,2.0,91,0.06,,,0.03,Wunderground v.1.15,2013-01-25 08:26:00,
2013-01-25 00:32:00,59.2,56.9,30.09,WNW,298,1.0,1.0,92,0.06,,,0.03,Wunderground v.1.15,2013-01-25 08:32:00,
2013-01-25 00:38:00,59.2,56.6,30.09,NW,311,1.0,3.0,91,0.06,,,0.04,Wunderground v.1.15,2013-01-25 08:38:00,
2013-01-25 00:44:00,59.7,56.5,30.09,NW,308,2.0,3.0,89,0.06,,,0.04,Wunderground v.1.15,2013-01-25 08:44:00,
2013-01-25 00:50:00,60.4,56.5,30.08,WNW,296,3.0,3.0,87,0.05,,,0.05,Wunderground v.1.15,2013-01-25 08:50:00,
2013-01-25 00:56:00,60.8,56.6,30.08,WSW,252,2.0,4.0,86,0.05,,,0.05,Wunderground v.1.15,2013-01-25 08:56:00,
2013-01-25 01:03:00,60.9,56.7,30.09,NNW,340,1.0,1.0,86,0.04,,,0.06,Wunderground v.1.15,2013-01-25 09:03:00,
2013-01-25 01:08:00,60.7,56.8,30.08,NNW,340,1.0,2.0,87,0.04,,,0.06,Wunderground v.1.15,2013-01-25 09:08:00,
2013-01-25 01:14:00,60.6,57.0,30.08,WNW,288,1.0,4.0,88,0.05,,,0.06,weatherlink.com 1.10,2013-01-25 09:14:00,
2013-01-25 01:20:00,61.1,56.9,30.08,WNW,297,2.0,2.0,86,0.00,,,0.06,Wunderground v.1.15,2013-01-25 09:20:00,
2013-01-25 01:26:00,61.2,56.7,30.09,WNW,300,1.0,2.0,85,0.00,,,0.07,Wunderground v.1.15,2013-01-25 09:26:00,
2013-01-25 01:32:00,61.6,57.0,30.08,SE,125,2.0,4.0,86,0.04,,,0.07,weatherlink.com 1.10,2013-01-25 09:32:00,
2013-01-25 01:38:00,61.3,57.4,30.09,SE,125,2.0,2.0,87,0.00,,,0.07,Wunderground v.1.15,2013-01-25 09:38:00,
2013-01-25 01:44:00,60.9,57.3,30.08,SE,125,1.0,1.0,88,0.00,,,0.07,Wunderground v.1.15,2013-01-25 09:44:00,
2013-01-25 01:50:00,60.6,57.3,30.08,SE,125,1.0,2.0,89,0.00,,,0.07,Wunderground v.1.15,2013-01-25 09:50:00,
2013-01-25 01:57:00,60.2,57.3,30.08,SE,125,1.0,2.0,90,0.00,,,0.07,Wunderground v.1.15,2013-01-25 09:57:00,
2013-01-25 02:02:00,60.1,57.5,30.08,SE,125,0.0,1.0,91,0.00,,,0.07,Wunderground v.1.15,2013-01-25 10:02:00,
2013-01-25 02:08:00,59.9,57.3,30.07,SE,125,1.0,3.0,91,0.00,,,0.07,Wunderground v.1.15,2013-01-25 10:08:00,
2013-01-25 02:14:00,60.0,57.4,30.07,East,96,1.0,2.0,91,0.00,,,0.07,Wunderground v.1.15,2013-01-25 10:14:00,
2013-01-25 02:20:00,60.1,57.2,30.07,East,82,1.0,1.0,90,0.00,,,0.07,Wunderground v.1.15,2013-01-25 10:20:00,
2013-01-25 02:27:00,60.1,57.2,30.06,East,82,0.0,1.0,90,0.00,,,0.07,Wunderground v.1.15,2013-01-25 10:27:00,
2013-01-25 02:32:00,60.0,57.4,30.06,East,82,0.0,1.0,91,0.00,,,0.07,Wunderground v.1.15,2013-01-25 10:32:00,
2013-01-25 02:38:00,59.9,57.3,30.06,East,82,0.0,2.0,91,0.00,,,0.07,Wunderground v.1.15,2013-01-25 10:38:00,
2013-01-25 02:44:00,59.9,57.3,30.06,West,277,1.0,2.0,91,0.00,,,0.07,Wunderground v.1.15,2013-01-25 10:44:00,
2013-01-25 02:50:00,59.8,57.5,30.05,WNW,291,2.0,4.0,92,0.00,,,0.07,Wunderground v.1.15,2013-01-25 10:50:00,
2013-01-25 02:56:00,59.7,57.7,30.05,NNW,335,3.0,4.0,93,0.00,,,0.07,Wunderground v.1.15,2013-01-25 10:56:00,
2013-01-25 03:02:00,59.5,57.5,30.05,WNW,298,2.0,4.0,93,0.00,,,0.07,Wunderground v.1.15,2013-01-25 11:02:00,
2013-01-25 03:08:00,59.4,57.4,30.04,NW,306,3.0,4.0,93,0.00,,,0.07,Wunderground v.1.15,2013-01-25 11:08:00,
2013-01-25 03:14:00,59.3,57.6,30.04,NW,306,2.0,3.0,94,0.00,,,0.07,Wunderground v.1.15,2013-01-25 11:14:00,
2013-01-25 03:20:00,59.3,57.6,30.04,NW,306,0.0,0.0,94,0.00,,,0.07,Wunderground v.1.15,2013-01-25 11:20:00,
2013-01-25 03:26:00,59.2,57.5,30.04,NW,306,0.0,0.0,94,0.00,,,0.07,Wunderground v.1.15,2013-01-25 11:26:00,
2013-01-25 03:32:00,59.2,57.5,30.03,NW,306,0.0,0.0,94,0.00,,,0.07,Wunderground v.1.15,2013-01-25 11:32:00,
2013-01-25 03:38:00,59.1,57.4,30.03,NW,306,0.0,0.0,94,0.00,,,0.08,Wunderground v.1.15,2013-01-25 11:38:00,
2013-01-25 03:44:00,59.1,57.4,30.03,NW,306,0.0,0.0,94,0.00,,,0.08,Wunderground v.1.15,2013-01-25 11:44:00,
2013-01-25 03:50:00,59.1,57.4,30.03,NW,306,0.0,0.0,94,0.00,,,0.08,Wunderground v.1.15,2013-01-25 11:50:00,
2013-01-25 03:56:00,59.1,57.4,30.03,NW,306,0.0,2.0,94,0.00,,,0.08,Wunderground v.1.15,2013-01-25 11:56:00,
2013-01-25 04:02:00,59.1,57.0,30.03,NW,306,1.0,3.0,94,0.01,,,0.08,weatherlink.com 1.10,2013-01-25 12:02:00,
2013-01-25 04:08:00,59.1,57.4,30.03,WSW,240,1.0,2.0,94,0.00,,,0.08,Wunderground v.1.15,2013-01-25 12:08:00,
2013-01-25 04:14:00,59.1,57.4,30.03,WSW,240,1.0,1.0,94,0.00,,,0.08,Wunderground v.1.15,2013-01-25 12:14:00,
2013-01-25 04:20:00,59.1,57.0,30.04,North,355,1.0,3.0,93,0.01,,,0.08,weatherlink.com 1.10,2013-01-25 12:20:00,
2013-01-25 04:26:00,59.2,56.9,30.03,NNE,21,1.0,4.0,92,0.00,,,0.08,Wunderground v.1.15,2013-01-25 12:26:00,
2013-01-25 04:32:00,59.9,56.6,30.03,NNE,24,3.0,4.0,89,0.00,,,0.08,Wunderground v.1.15,2013-01-25 12:32:00,
2013-01-25 04:38:00,60.1,56.5,30.03,NNE,15,3.0,4.0,88,0.00,,,0.08,Wunderground v.1.15,2013-01-25 12:38:00,
2013-01-25 04:44:00,60.2,56.6,30.03,NNE,14,2.0,3.0,88,0.00,,,0.08,Wunderground v.1.15,2013-01-25 12:44:00,
2013-01-25 04:50:00,60.3,56.4,30.04,NNE,19,2.0,2.0,87,0.00,,,0.08,Wunderground v.1.15,2013-01-25 12:50:00,
2013-01-25 04:56:00,60.2,56.6,30.04,NNE,22,1.0,2.0,88,0.00,,,0.08,Wunderground v.1.15,2013-01-25 12:56:00,
2013-01-25 05:02:00,59.9,56.6,30.04,North,5,1.0,1.0,89,0.00,,,0.09,Wunderground v.1.15,2013-01-25 13:02:00,
2013-01-25 05:08:00,59.8,56.6,30.05,North,5,1.0,2.0,89,0.00,,,0.09,Wunderground v.1.15,2013-01-25 13:08:00,
2013-01-25 05:14:00,59.6,56.7,30.06,North,5,1.0,1.0,90,0.00,,,0.09,Wunderground v.1.15,2013-01-25 13:14:00,
2013-01-25 05:20:00,59.6,56.7,30.07,North,5,0.0,0.0,90,0.00,,,0.09,Wunderground v.1.15,2013-01-25 13:20:00,
2013-01-25 05:26:00,59.5,56.9,30.07,North,5,0.0,0.0,91,0.00,,,0.09,Wunderground v.1.15,2013-01-25 13:26:00,
2013-01-25 05:32:00,59.3,57.0,30.06,North,5,0.0,2.0,92,0.00,,,0.10,Wunderground v.1.15,2013-01-25 13:32:00,
2013-01-25 05:38:00,59.1,57.1,30.06,NNW,345,1.0,3.0,93,0.00,,,0.10,Wunderground v.1.15,2013-01-25 13:38:00,
2013-01-25 05:44:00,58.9,56.9,30.06,East,84,2.0,5.0,93,0.00,,,0.10,Wunderground v.1.15,2013-01-25 13:44:00,
2013-01-25 05:50:00,59.2,56.6,30.06,North,11,3.0,3.0,91,0.00,,,0.10,Wunderground v.1.15,2013-01-25 13:50:00,
2013-01-25 05:56:00,59.2,56.6,30.06,North,11,2.0,3.0,91,0.00,,,0.10,Wunderground v.1.15,2013-01-25 13:56:00,
2013-01-25 06:03:00,59.1,56.8,30.06,North,11,0.0,1.0,92,0.00,,,0.11,Wunderground v.1.15,2013-01-25 14:03:00,
2013-01-25 06:08:00,59.1,56.8,30.06,North,11,0.0,1.0,92,0.00,,,0.11,Wunderground v.1.15,2013-01-25 14:08:00,
2013-01-25 06:14:00,59.3,57.3,30.06,North,11,0.0,0.0,93,0.00,,,0.11,Wunderground v.1.15,2013-01-25 14:14:00,
2013-01-25 06:20:00,59.3,57.0,30.06,ENE,59,0.0,2.0,92,0.00,,,0.11,Wunderground v.1.15,2013-01-25 14:20:00,
2013-01-25 06:26:00,59.4,56.8,30.06,NE,34,2.0,2.0,91,0.00,,,0.11,Wunderground v.1.15,2013-01-25 14:26:00,
2013-01-25 06:34:00,59.7,57.1,30.06,NE,34,1.0,1.0,91,0.00,,,0.11,Wunderground v.1.15,2013-01-25 14:34:00,
2013-01-25 06:40:00,59.6,56.7,30.07,NNE,21,1.0,1.0,90,0.00,,,0.11,Wunderground v.1.15,2013-01-25 14:40:00,
2013-01-25 06:46:00,59.7,56.8,30.07,NNE,32,2.0,6.0,90,0.00,,,0.11,Wunderground v.1.15,2013-01-25 14:46:00,
2013-01-25 06:52:00,59.8,56.6,30.07,NNE,18,2.0,3.0,89,0.00,,,0.11,Wunderground v.1.15,2013-01-25 14:52:00,
2013-01-25 06:58:00,59.9,56.6,30.07,NNE,23,3.0,3.0,89,0.00,,,0.12,Wunderground v.1.15,2013-01-25 14:58:00,
2013-01-25 07:04:00,59.8,56.9,30.07,NNE,13,2.0,6.0,90,0.00,,,0.12,Wunderground v.1.15,2013-01-25 15:04:00,
2013-01-25 07:10:00,59.7,56.8,30.07,NE,55,2.0,3.0,90,0.00,,,0.12,Wunderground v.1.15,2013-01-25 15:10:00,
2013-01-25 07:17:00,59.6,56.7,30.07,NE,36,3.0,4.0,90,0.00,,,0.13,Wunderground v.1.15,2013-01-25 15:17:00,
2013-01-25 07:22:00,59.5,56.9,30.07,North,10,4.0,10.0,91,0.00,,,0.13,Wunderground v.1.15,2013-01-25 15:22:00,
2013-01-25 07:28:00,59.3,56.7,30.07,NE,45,4.0,10.0,91,0.08,,,0.14,Wunderground v.1.15,2013-01-25 15:28:00,
2013-01-25 07:34:00,59.3,57.0,30.07,NE,39,5.0,6.0,92,0.05,,,0.14,Wunderground v.1.15,2013-01-25 15:34:00,
2013-01-25 07:40:00,59.2,57.2,30.07,NE,42,5.0,5.0,93,0.00,,,0.14,Wunderground v.1.15,2013-01-25 15:40:00,
2013-01-25 07:45:00,59.2,57.0,30.07,NNE,23,5.0,9.0,93,0.03,,,0.14,weatherlink.com 1.10,2013-01-25 15:45:00,
2013-01-25 07:50:00,59.3,57.0,30.07,NE,39,4.0,4.0,92,0.00,,,0.14,Wunderground v.1.15,2013-01-25 15:50:00,
2013-01-25 07:56:00,59.5,57.2,30.07,ENE,65,4.0,4.0,92,0.00,,,0.14,Wunderground v.1.15,2013-01-25 15:56:00,
2013-01-25 08:02:00,59.7,57.1,30.08,East,84,3.0,3.0,91,0.00,,,0.14,Wunderground v.1.15,2013-01-25 16:02:00,
2013-01-25 08:08:00,59.7,57.1,30.08,ENE,73,3.0,4.0,91,0.00,,,0.14,Wunderground v.1.15,2013-01-25 16:08:00,
2013-01-25 08:14:00,59.8,57.2,30.08,NE,38,4.0,7.0,91,0.00,,,0.14,Wunderground v.1.15,2013-01-25 16:14:00,
2013-01-25 08:20:00,60.0,57.1,30.08,NE,53,4.0,4.0,90,0.00,,,0.14,Wunderground v.1.15,2013-01-25 16:20:00,
2013-01-25 08:26:00,60.1,57.2,30.08,NE,43,3.0,4.0,90,0.00,,,0.14,Wunderground v.1.15,2013-01-25 16:26:00,
2013-01-25 08:32:00,60.2,57.3,30.08,NE,48,3.0,4.0,90,0.00,,,0.14,Wunderground v.1.15,2013-01-25 16:32:00,
2013-01-25 08:38:00,60.3,57.4,30.08,NNE,27,3.0,4.0,90,0.00,,,0.15,Wunderground v.1.15,2013-01-25 16:38:00,
2013-01-25 08:44:00,60.3,57.4,30.08,NE,34,4.0,5.0,90,0.00,,,0.15,Wunderground v.1.15,2013-01-25 16:44:00,
2013-01-25 08:50:00,60.4,57.5,30.08,NE,36,4.0,4.0,90,0.00,,,0.15,Wunderground v.1.15,2013-01-25 16:50:00,
2013-01-25 08:56:00,60.4,57.5,30.09,NE,38,4.0,6.0,90,0.00,,,0.15,Wunderground v.1.15,2013-01-25 16:56:00,
2013-01-25 09:03:00,60.8,57.5,30.09,NNE,13,4.0,5.0,89,0.00,,,0.15,Wunderground v.1.15,2013-01-25 17:03:00,
2013-01-25 09:08:00,61.0,57.7,30.09,NE,34,4.0,5.0,89,0.00,,,0.15,Wunderground v.1.15,2013-01-25 17:08:00,
2013-01-25 09:14:00,61.2,57.9,30.09,NNE,30,3.0,4.0,89,0.00,,,0.15,Wunderground v.1.15,2013-01-25 17:14:00,
2013-01-25 09:20:00,61.4,57.8,30.09,ENE,71,3.0,3.0,88,0.00,,,0.15,Wunderground v.1.15,2013-01-25 17:20:00,
2013-01-25 09:26:00,62.1,57.9,30.09,NE,40,3.0,7.0,86,0.00,,,0.15,Wunderground v.1.15,2013-01-25 17:26:00,
2013-01-25 09:32:00,62.5,57.9,30.09,ENE,60,3.0,7.0,85,0.00,,,0.15,Wunderground v.1.15,2013-01-25 17:32:00,
2013-01-25 09:38:00,62.8,57.9,30.09,NE,48,3.0,7.0,84,0.00,,,0.15,Wunderground v.1.15,2013-01-25 17:38:00,
2013-01-25 09:44:00,63.1,57.9,30.09,NE,49,4.0,4.0,83,0.00,,,0.15,Wunderground v.1.15,2013-01-25 17:44:00,
2013-01-25 09:50:00,63.3,57.7,30.09,NE,55,4.0,4.0,82,0.00,,,0.15,Wunderground v.1.15,2013-01-25 17:50:00,
2013-01-25 09:56:00,63.5,57.9,30.09,NE,49,3.0,4.0,82,0.00,,,0.15,Wunderground v.1.15,2013-01-25 17:56:00,
2013-01-25 10:02:00,63.7,57.8,30.09,NE,51,3.0,4.0,81,0.00,,,0.15,Wunderground v.1.15,2013-01-25 18:02:00,
2013-01-25 10:08:00,63.7,58.4,30.09,NE,55,4.0,5.0,83,0.00,,,0.15,Wunderground v.1.15,2013-01-25 18:08:00,
2013-01-25 10:14:00,63.3,58.0,30.09,NE,38,5.0,5.0,83,0.00,,,0.15,Wunderground v.1.15,2013-01-25 18:14:00,
2013-01-25 10:20:00,63.3,58.0,30.09,NE,55,5.0,5.0,83,0.00,,,0.15,Wunderground v.1.15,2013-01-25 18:20:00,
2013-01-25 10:26:00,63.5,58.2,30.08,NNE,20,5.0,6.0,83,0.00,,,0.15,Wunderground v.1.15,2013-01-25 18:26:00,
2013-01-25 10:31:00,63.5,58.0,30.09,NNE,30,8.0,11.0,83,0.00,,,0.15,weatherlink.com 1.10,2013-01-25 18:31:00,
2013-01-25 10:38:00,63.5,57.9,30.08,North,360,5.0,8.0,82,0.00,,,0.15,Wunderground v.1.15,2013-01-25 18:38:00,
2013-01-25 10:44:00,63.4,57.8,30.08,NNE,26,5.0,7.0,82,0.00,,,0.15,Wunderground v.1.15,2013-01-25 18:44:00,
2013-01-25 10:50:00,63.5,57.9,30.08,NNE,15,5.0,6.0,82,0.00,,,0.15,Wunderground v.1.15,2013-01-25 18:50:00,
2013-01-25 10:56:00,63.7,57.8,30.08,NNE,13,5.0,7.0,81,0.00,,,0.15,Wunderground v.1.15,2013-01-25 18:56:00,
2013-01-25 11:02:00,63.9,58.0,30.08,NNE,24,5.0,5.0,81,0.00,,,0.15,Wunderground v.1.15,2013-01-25 19:02:00,
2013-01-25 11:08:00,64.2,58.0,30.08,NNE,16,3.0,8.0,81,0.00,,,0.15,weatherlink.com 1.10,2013-01-25 19:08:00,
2013-01-25 11:14:00,64.5,58.2,30.08,NNE,23,3.0,4.0,80,0.00,,,0.15,Wunderground v.1.15,2013-01-25 19:14:00,
2013-01-25 11:20:00,64.9,58.9,30.07,NE,35,2.0,2.0,81,0.00,,,0.15,Wunderground v.1.15,2013-01-25 19:20:00,
2013-01-25 11:26:00,65.4,59.1,30.07,NNE,18,2.0,2.0,80,0.00,,,0.15,Wunderground v.1.15,2013-01-25 19:26:00,
2013-01-25 11:32:00,65.7,58.7,30.07,East,84,3.0,5.0,78,0.00,,,0.15,Wunderground v.1.15,2013-01-25 19:32:00,
2013-01-25 11:38:00,65.7,58.7,30.06,NE,41,3.0,5.0,78,0.00,,,0.15,Wunderground v.1.15,2013-01-25 19:38:00,
2013-01-25 11:44:00,65.6,59.0,30.06,NE,40,1.0,8.0,79,0.00,,,0.15,weatherlink.com 1.10,2013-01-25 19:44:00,
2013-01-25 11:50:00,65.9,58.8,30.05,NNE,26,3.0,3.0,78,0.00,,,0.15,Wunderground v.1.15,2013-01-25 19:50:00,
2013-01-25 11:56:00,65.8,58.7,30.05,NNE,27,5.0,6.0,78,0.00,,,0.15,Wunderground v.1.15,2013-01-25 19:56:00,
2013-01-25 12:02:00,65.7,59.0,30.04,NNE,24,2.0,8.0,79,0.00,,,0.15,weatherlink.com 1.10,2013-01-25 20:02:00,
2013-01-25 12:08:00,65.6,58.6,30.04,NE,35,5.0,5.0,78,0.00,,,0.15,Wunderground v.1.15,2013-01-25 20:08:00,
2013-01-25 12:14:00,65.6,58.6,30.03,NE,34,5.0,5.0,78,0.00,,,0.15,Wunderground v.1.15,2013-01-25 20:14:00,
2013-01-25 12:20:00,65.7,58.7,30.03,NE,34,4.0,4.0,78,0.00,,,0.15,Wunderground v.1.15,2013-01-25 20:20:00,
2013-01-25 12:26:00,65.8,58.7,30.03,North,5,3.0,4.0,78,0.00,,,0.15,Wunderground v.1.15,2013-01-25 20:26:00,
2013-01-25 12:32:00,65.8,58.7,30.03,NNE,17,4.0,4.0,78,0.00,,,0.15,Wunderground v.1.15,2013-01-25 20:32:00,
2013-01-25 12:38:00,65.8,58.7,30.02,NE,52,4.0,6.0,78,0.00,,,0.15,Wunderground v.1.15,2013-01-25 20:38:00,
2013-01-25 12:44:00,65.9,58.8,30.01,NNE,24,4.0,5.0,78,0.00,,,0.15,Wunderground v.1.15,2013-01-25 20:44:00,
2013-01-25 12:50:00,65.9,58.5,30.00,NE,34,5.0,5.0,77,0.00,,,0.15,Wunderground v.1.15,2013-01-25 20:50:00,
2013-01-25 12:57:00,66.0,58.6,30.00,NNE,15,5.0,5.0,77,0.00,,,0.15,Wunderground v.1.15,2013-01-25 20:57:00,
2013-01-25 13:02:00,66.1,58.3,30.00,NE,42,5.0,7.0,76,0.00,,,0.15,Wunderground v.1.15,2013-01-25 21:02:00,
2013-01-25 13:08:00,66.2,58.4,29.99,NNE,22,5.0,7.0,76,0.00,,,0.15,Wunderground v.1.15,2013-01-25 21:08:00,
2013-01-25 13:14:00,66.3,58.9,29.99,NE,46,5.0,6.0,77,0.00,,,0.15,Wunderground v.1.15,2013-01-25 21:14:00,
2013-01-25 13:20:00,66.6,58.8,29.99,NNE,23,4.0,7.0,76,0.00,,,0.15,Wunderground v.1.15,2013-01-25 21:20:00,
2013-01-25 13:26:00,66.5,58.3,29.98,NNE,32,6.0,10.0,75,0.00,,,0.15,Wunderground v.1.15,2013-01-25 21:26:00,
2013-01-25 13:32:00,66.4,58.6,29.98,NE,40,7.0,7.0,76,0.00,,,0.15,Wunderground v.1.15,2013-01-25 21:32:00,
2013-01-25 13:38:00,66.5,58.3,29.98,NNE,19,5.0,7.0,75,0.00,,,0.15,Wunderground v.1.15,2013-01-25 21:38:00,
2013-01-25 13:44:00,66.6,58.4,29.99,NNE,24,4.0,4.0,75,0.00,,,0.15,Wunderground v.1.15,2013-01-25 21:44:00,
2013-01-25 13:50:00,66.7,58.5,29.99,NNE,30,4.0,4.0,75,0.00,,,0.15,Wunderground v.1.15,2013-01-25 21:50:00,
2013-01-25 13:56:00,66.8,57.9,29.99,ENE,75,2.0,4.0,73,0.00,,,0.15,Wunderground v.1.15,2013-01-25 21:56:00,
2013-01-25 14:02:00,66.9,58.0,29.99,East,81,2.0,3.0,73,0.00,,,0.15,Wunderground v.1.15,2013-01-25 22:02:00,
2013-01-25 14:08:00,66.9,58.0,29.99,NE,38,2.0,4.0,73,0.00,,,0.15,Wunderground v.1.15,2013-01-25 22:08:00,
2013-01-25 14:14:00,66.8,58.2,29.99,East,90,2.0,2.0,74,0.00,,,0.15,Wunderground v.1.15,2013-01-25 22:14:00,
2013-01-25 14:20:00,66.9,58.3,29.99,ENE,78,1.0,1.0,74,0.00,,,0.15,Wunderground v.1.15,2013-01-25 22:20:00,
2013-01-25 14:26:00,66.8,58.2,29.98,ENE,57,2.0,3.0,74,0.00,,,0.15,Wunderground v.1.15,2013-01-25 22:26:00,
2013-01-25 14:32:00,66.5,58.7,29.99,NNE,32,2.0,2.0,76,0.00,,,0.15,Wunderground v.1.15,2013-01-25 22:32:00,
2013-01-25 14:38:00,66.3,58.9,29.99,ESE,113,1.0,3.0,77,0.00,,,0.15,Wunderground v.1.15,2013-01-25 22:38:00,
2013-01-25 14:44:00,65.9,58.5,29.99,ESE,107,1.0,2.0,77,0.00,,,0.15,Wunderground v.1.15,2013-01-25 22:44:00,
2013-01-25 14:50:00,65.6,58.9,29.99,NE,42,1.0,1.0,79,0.00,,,0.15,Wunderground v.1.15,2013-01-25 22:50:00,
2013-01-25 14:56:00,65.4,59.4,29.99,ENE,78,1.0,2.0,81,0.00,,,0.16,Wunderground v.1.15,2013-01-25 22:56:00,
2013-01-25 15:03:00,65.2,59.2,29.98,NE,37,2.0,2.0,81,0.00,,,0.16,Wunderground v.1.15,2013-01-25 23:03:00,
2013-01-25 15:08:00,65.1,59.5,29.98,NE,46,1.0,3.0,82,0.00,,,0.16,Wunderground v.1.15,2013-01-25 23:08:00,
2013-01-25 15:14:00,64.9,59.6,29.98,NNE,32,1.0,3.0,83,0.00,,,0.16,Wunderground v.1.15,2013-01-25 23:14:00,
2013-01-25 15:20:00,64.8,59.2,29.98,NNE,23,2.0,3.0,82,0.00,,,0.16,Wunderground v.1.15,2013-01-25 23:20:00,
2013-01-25 15:26:00,64.7,59.4,29.97,NNE,24,2.0,4.0,83,0.00,,,0.16,Wunderground v.1.15,2013-01-25 23:26:00,
2013-01-25 15:32:00,64.6,59.3,29.97,NNE,24,2.0,3.0,83,0.00,,,0.16,Wunderground v.1.15,2013-01-25 23:32:00,
2013-01-25 15:38:00,64.5,58.9,29.96,NNE,27,2.0,3.0,82,0.00,,,0.16,Wunderground v.1.15,2013-01-25 23:38:00,
2013-01-25 15:44:00,64.4,59.1,29.96,ENE,59,2.0,2.0,83,0.00,,,0.16,Wunderground v.1.15,2013-01-25 23:44:00,
2013-01-25 15:50:00,64.4,59.1,29.95,NNE,19,2.0,3.0,83,0.00,,,0.16,Wunderground v.1.15,2013-01-25 23:50:00,
2013-01-25 15:56:00,64.3,59.0,29.95,NNE,15,2.0,4.0,83,0.00,,,0.16,Wunderground v.1.15,2013-01-25 23:56:00,
2013-01-25 16:02:00,64.3,59.0,29.96,NNE,15,1.0,1.0,83,0.00,,,0.16,Wunderground v.1.15,2013-01-26 00:02:00,
2013-01-25 16:08:00,64.2,58.9,29.95,NNE,17,1.0,1.0,83,0.00,,,0.16,Wunderground v.1.15,2013-01-26 00:08:00,
2013-01-25 16:14:00,64.2,59.3,29.95,NNE,17,1.0,1.0,84,0.00,,,0.16,Wunderground v.1.15,2013-01-26 00:14:00,
2013-01-25 16:19:00,64.1,59.0,29.96,NNE,17,1.0,2.0,84,0.00,,,0.16,weatherlink.com 1.10,2013-01-26 00:19:00,
2013-01-25 16:27:00,64.0,58.7,29.96,NNE,17,0.0,0.0,83,0.00,,,0.16,Wunderground v.1.15,2013-01-26 00:27:00,
2013-01-25 16:32:00,64.0,58.7,29.96,NNE,17,0.0,0.0,83,0.00,,,0.16,Wunderground v.1.15,2013-01-26 00:32:00,
2013-01-25 16:38:00,63.9,59.0,29.96,NNE,17,0.0,0.0,84,0.00,,,0.16,weatherlink.com 1.10,2013-01-26 00:38:00,
2013-01-25 16:44:00,63.8,59.2,29.95,NNE,17,0.0,0.0,85,0.00,,,0.16,Wunderground v.1.15,2013-01-26 00:44:00,
2013-01-25 16:50:00,63.6,59.0,29.95,NNE,17,0.0,1.0,85,0.00,,,0.16,Wunderground v.1.15,2013-01-26 00:50:00,
2013-01-25 16:55:00,63.5,59.0,29.95,NNE,17,0.0,2.0,86,0.00,,,0.16,weatherlink.com 1.10,2013-01-26 00:55:00,
2013-01-25 17:01:00,63.4,59.5,29.95,NNE,17,0.0,1.0,87,0.00,,,0.16,Wunderground v.1.15,2013-01-26 01:01:00,
2013-01-25 17:07:00,63.3,59.4,29.94,NNE,17,0.0,1.0,87,0.00,,,0.16,Wunderground v.1.15,2013-01-26 01:07:00,
2013-01-25 17:12:00,63.1,59.5,29.93,NNE,17,0.0,1.0,88,0.00,,,0.16,Wunderground v.1.15,2013-01-26 01:12:00,
2013-01-25 17:18:00,62.9,59.3,29.93,North,5,1.0,1.0,88,0.00,,,0.16,Wunderground v.1.15,2013-01-26 01:18:00,
2013-01-25 17:24:00,62.8,59.5,29.94,North,5,1.0,1.0,89,0.00,,,0.16,Wunderground v.1.15,2013-01-26 01:24:00,
2013-01-25 17:30:00,62.7,59.4,29.95,North,5,0.0,0.0,89,0.00,,,0.16,Wunderground v.1.15,2013-01-26 01:30:00,
2013-01-25 17:36:00,62.5,59.2,29.95,North,5,0.0,0.0,89,0.00,,,0.16,Wunderground v.1.15,2013-01-26 01:36:00,
2013-01-25 17:42:00,62.5,59.5,29.94,North,5,0.0,0.0,90,0.00,,,0.16,Wunderground v.1.15,2013-01-26 01:42:00,
2013-01-25 17:48:00,62.5,59.5,29.95,North,5,0.0,0.0,90,0.00,,,0.16,Wunderground v.1.15,2013-01-26 01:48:00,
2013-01-25 17:54:00,62.4,59.4,29.96,North,5,0.0,2.0,90,0.00,,,0.16,Wunderground v.1.15,2013-01-26 01:54:00,
2013-01-25 18:00:00,62.4,59.7,29.96,North,5,1.0,1.0,91,0.00,,,0.16,Wunderground v.1.15,2013-01-26 02:00:00,
2013-01-25 18:06:00,62.3,59.6,29.96,North,5,1.0,1.0,91,0.00,,,0.17,Wunderground v.1.15,2013-01-26 02:06:00,
2013-01-25 18:14:00,62.2,59.5,29.96,North,5,1.0,1.0,91,0.00,,,0.17,Wunderground v.1.15,2013-01-26 02:14:00,
2013-01-25 18:20:00,62.2,59.8,29.95,North,5,1.0,1.0,92,0.17,,,0.19,Wunderground v.1.15,2013-01-26 02:20:00,
2013-01-25 18:26:00,62.0,59.6,29.96,North,350,1.0,1.0,92,0.15,,,0.20,Wunderground v.1.15,2013-01-26 02:26:00,
2013-01-25 18:34:00,61.8,59.8,29.96,North,350,1.0,1.0,93,0.05,,,0.20,Wunderground v.1.15,2013-01-26 02:34:00,
2013-01-25 18:40:00,61.7,59.7,29.97,North,350,1.0,1.0,93,0.00,,,0.20,Wunderground v.1.15,2013-01-26 02:40:00,
2013-01-25 18:47:00,61.6,59.6,29.97,NNW,346,1.0,1.0,93,0.00,,,0.20,Wunderground v.1.15,2013-01-26 02:47:00,
2013-01-25 18:53:00,61.5,59.8,29.97,NNW,346,1.0,1.0,94,0.00,,,0.20,Wunderground v.1.15,2013-01-26 02:53:00,
2013-01-25 18:58:00,61.5,59.8,29.97,NNW,346,0.0,1.0,94,0.00,,,0.20,Wunderground v.1.15,2013-01-26 02:58:00,
2013-01-25 19:04:00,61.5,59.8,29.97,NNW,346,0.0,0.0,94,0.00,,,0.20,Wunderground v.1.15,2013-01-26 03:04:00,
2013-01-25 19:10:00,61.4,60.0,29.97,NNW,346,0.0,0.0,95,0.00,,,0.20,Wunderground v.1.15,2013-01-26 03:10:00,
2013-01-25 19:16:00,61.4,60.0,29.97,NNW,346,1.0,1.0,95,0.00,,,0.20,Wunderground v.1.15,2013-01-26 03:16:00,
2013-01-25 19:22:00,61.5,60.1,29.97,NW,319,1.0,2.0,95,0.00,,,0.20,Wunderground v.1.15,2013-01-26 03:22:00,
2013-01-25 19:28:00,61.5,60.1,29.97,NW,315,2.0,3.0,95,0.00,,,0.20,Wunderground v.1.15,2013-01-26 03:28:00,
2013-01-25 19:34:00,61.4,60.0,29.96,NNW,348,2.0,3.0,95,0.00,,,0.20,Wunderground v.1.15,2013-01-26 03:34:00,
2013-01-25 19:40:00,61.5,60.1,29.96,NNW,346,2.0,2.0,95,0.00,,,0.20,Wunderground v.1.15,2013-01-26 03:40:00,
2013-01-25 19:46:00,61.4,60.0,29.96,NNW,346,2.0,2.0,95,0.00,,,0.20,Wunderground v.1.15,2013-01-26 03:46:00,
2013-01-25 19:52:00,61.4,59.7,29.95,North,355,2.0,3.0,94,0.00,,,0.20,Wunderground v.1.15,2013-01-26 03:52:00,
2013-01-25 19:58:00,61.3,59.6,29.95,North,355,2.0,3.0,94,0.00,,,0.20,Wunderground v.1.15,2013-01-26 03:58:00,
2013-01-25 20:04:00,61.3,59.6,29.95,North,355,2.0,2.0,94,0.00,,,0.20,Wunderground v.1.15,2013-01-26 04:04:00,
2013-01-25 20:10:00,61.3,59.6,29.94,NNE,28,2.0,4.0,94,0.00,,,0.20,Wunderground v.1.15,2013-01-26 04:10:00,
2013-01-25 20:17:00,61.3,59.6,29.94,North,355,3.0,4.0,94,0.00,,,0.20,Wunderground v.1.15,2013-01-26 04:17:00,
2013-01-25 20:22:00,61.3,59.6,29.94,NNE,26,2.0,3.0,94,0.00,,,0.20,Wunderground v.1.15,2013-01-26 04:22:00,
2013-01-25 20:28:00,61.3,59.6,29.94,NNE,26,1.0,3.0,94,0.00,,,0.20,Wunderground v.1.15,2013-01-26 04:28:00,
2013-01-25 20:34:00,61.3,59.6,29.94,NNE,26,1.0,2.0,94,0.00,,,0.20,Wunderground v.1.15,2013-01-26 04:34:00,
2013-01-25 20:40:00,61.2,59.5,29.94,NNE,26,1.0,1.0,94,0.00,,,0.20,Wunderground v.1.15,2013-01-26 04:40:00,
2013-01-25 20:47:00,61.2,59.5,29.95,NNE,22,1.0,2.0,94,0.00,,,0.20,Wunderground v.1.15,2013-01-26 04:47:00,
2013-01-25 20:52:00,61.1,59.4,29.95,NNE,22,1.0,3.0,94,0.00,,,0.20,Wunderground v.1.15,2013-01-26 04:52:00,
2013-01-25 20:58:00,61.1,59.4,29.96,East,97,1.0,3.0,94,0.00,,,0.20,Wunderground v.1.15,2013-01-26 04:58:00,
2013-01-25 21:00:00,61.1,59.4,29.96,East,97,1.0,1.0,94,0.00,,,0.20,Wunderground v.1.15,2013-01-26 05:00:00,
2013-01-25 21:02:00,61.1,59.4,29.96,East,97,1.0,1.0,94,0.00,,,0.20,Wunderground v.1.15,2013-01-26 05:02:00,
2013-01-25 21:04:00,61.1,59.4,29.96,East,97,1.0,1.0,94,0.00,,,0.20,Wunderground v.1.15,2013-01-26 05:04:00,
2013-01-25 21:10:00,61.1,59.4,29.96,East,85,1.0,2.0,94,0.00,,,0.20,Wunderground v.1.15,2013-01-26 05:10:00,
2013-01-25 21:16:00,61.1,59.4,29.96,East,85,2.0,2.0,94,0.00,,,0.20,Wunderground v.1.15,2013-01-26 05:16:00,
2013-01-25 21:22:00,61.1,59.4,29.95,ENE,77,1.0,2.0,94,0.00,,,0.20,Wunderground v.1.15,2013-01-26 05:22:00,
2013-01-25 21:28:00,61.0,59.3,29.95,NE,50,1.0,2.0,94,0.00,,,0.20,Wunderground v.1.15,2013-01-26 05:28:00,
2013-01-25 21:34:00,61.0,59.0,29.95,NE,45,1.0,3.0,94,0.00,,,0.20,weatherlink.com 1.10,2013-01-26 05:34:00,
2013-01-25 21:40:00,61.0,59.3,29.95,NE,45,1.0,1.0,94,0.00,,,0.20,Wunderground v.1.15,2013-01-26 05:40:00,
2013-01-25 21:46:00,61.0,59.3,29.95,NE,45,1.0,2.0,94,0.00,,,0.20,Wunderground v.1.15,2013-01-26 05:46:00,
2013-01-25 21:52:00,61.0,59.0,29.95,North,360,0.0,3.0,94,0.00,,,0.20,weatherlink.com 1.10,2013-01-26 05:52:00,
2013-01-25 21:58:00,60.9,59.2,29.94,North,360,1.0,2.0,94,0.00,,,0.20,Wunderground v.1.15,2013-01-26 05:58:00,
2013-01-25 22:04:00,60.9,58.9,29.94,North,360,1.0,2.0,93,0.00,,,0.20,Wunderground v.1.15,2013-01-26 06:04:00,
2013-01-25 22:10:00,60.9,58.9,29.94,North,360,1.0,1.0,93,0.00,,,0.20,Wunderground v.1.15,2013-01-26 06:10:00,
2013-01-25 22:16:00,60.9,58.9,29.95,North,360,1.0,1.0,93,0.00,,,0.20,Wunderground v.1.15,2013-01-26 06:16:00,
2013-01-25 22:23:00,60.9,58.9,29.95,North,360,0.0,1.0,93,0.00,,,0.20,Wunderground v.1.15,2013-01-26 06:23:00,
2013-01-25 22:28:00,60.9,58.9,29.95,North,360,0.0,1.0,93,0.00,,,0.20,Wunderground v.1.15,2013-01-26 06:28:00,
2013-01-25 22:34:00,60.8,58.8,29.95,North,360,0.0,0.0,93,0.00,,,0.20,Wunderground v.1.15,2013-01-26 06:34:00,
2013-01-25 22:40:00,60.8,58.8,29.95,North,360,0.0,0.0,93,0.00,,,0.20,Wunderground v.1.15,2013-01-26 06:40:00,
2013-01-25 22:46:00,60.7,59.0,29.95,North,360,0.0,0.0,94,0.00,,,0.20,Wunderground v.1.15,2013-01-26 06:46:00,
2013-01-25 22:52:00,60.7,59.0,29.95,North,360,0.0,0.0,94,0.00,,,0.20,Wunderground v.1.15,2013-01-26 06:52:00,
2013-01-25 22:58:00,60.6,58.9,29.95,North,360,0.0,1.0,94,0.00,,,0.20,Wunderground v.1.15,2013-01-26 06:58:00,
2013-01-25 23:04:00,60.6,58.9,29.94,North,360,0.0,0.0,94,0.00,,,0.20,Wunderground v.1.15,2013-01-26 07:04:00,
2013-01-25 23:10:00,60.5,58.8,29.94,North,360,0.0,0.0,94,0.00,,,0.20,Wunderground v.1.15,2013-01-26 07:10:00,
2013-01-25 23:17:00,60.5,58.8,29.94,North,360,0.0,0.0,94,0.00,,,0.20,Wunderground v.1.15,2013-01-26 07:17:00,
2013-01-25 23:22:00,60.5,58.8,29.94,North,360,0.0,1.0,94,0.00,,,0.20,Wunderground v.1.15,2013-01-26 07:22:00,
2013-01-25 23:28:00,60.4,59.0,29.94,North,360,1.0,1.0,95,0.00,,,0.20,Wunderground v.1.15,2013-01-26 07:28:00,
2013-01-25 23:34:00,60.4,59.0,29.94,West,276,1.0,2.0,95,0.00,,,0.20,Wunderground v.1.15,2013-01-26 07:34:00,
2013-01-25 23:40:00,60.4,59.0,29.94,West,276,1.0,1.0,95,0.00,,,0.20,Wunderground v.1.15,2013-01-26 07:40:00,
2013-01-25 23:46:00,60.4,59.0,29.94,West,276,0.0,1.0,95,0.00,,,0.20,Wunderground v.1.15,2013-01-26 07:46:00,
2013-01-25 23:53:00,60.4,59.0,29.93,West,276,0.0,1.0,95,0.00,,,0.20,Wunderground v.1.15,2013-01-26 07:53:00,
2013-01-25 23:58:00,60.4,59.0,29.93,West,276,0.0,1.0,95,0.00,,,0.20,Wunderground v.1.15,2013-01-26 07:58:00,